Location: Newark
(50.0336°N, 22.0047°E)
Time: 06:21:46
(UTC+00:00)

N. Korean satellite - Pass Details

Date: 29 January 2020
Orbit: 456 x 505 km, 97.2° (Epoch: 27 February)

Event Time Altitude Azimuth Distance (km) Brightness Sun altitude
Rises 05:32:27 0° 360° (N) 2,549 10.0 -6.4°
Reaches altitude 10° 05:34:54 10° 343° (NNW) 1,674 8.9 -6.1°
Maximum altitude 05:37:32 20° 295° (WNW) 1,201 7.9 -5.7°
Drops below altitude 10° 05:40:11 10° 248° (WSW) 1,685 8.9 -5.3°
Sets 05:42:40 0° 231° (SW) 2,571 10.0 -4.9°
